OE6CUD-6 Weather Reports


Display with metric or nautical units.
time (UTC)temp
F
wind
direction
speed
MPH
gust
MPH
rain 1hr
in
rain 24hr
in
rain mn
in
humidity
%
barometer
mb
20260906014554 57 350 0.0 2.0 0.00 0.05 0.00 100 1022.5
20260906014101 57 355 0.0 2.0 0.00 0.05 0.00 100 1022.5
20260906014054 57 355 0.0 2.0 0.00 0.05 0.00 100 1022.4
20260906013032 57 355 0.0 2.0 0.00 0.05 0.00 100 1022.4
20260906012529 57 355 0.0 2.0 0.00 0.05 0.00 100 1022.3
20260906012022 58 355 0.0 2.0 0.00 0.05 0.00 100 1022.3
20260906011827 58 355 0.0 1.0 0.00 0.05 0.00 100 1022.2
20260906011821 58 355 0.0 2.0 0.00 0.05 0.00 100 1022.3
20260906010504 58 355 0.0 1.0 0.00 0.05 0.00 100 1022.1
20260906010002 58 355 0.0 1.0 0.00 0.05 0.00 100 1022.1
20260906005749 58 355 0.0 2.0 0.00 0.05 0.00 100 1022.4
20260906004955 58 350 0.0 2.0 0.00 0.05 0.00 100 1022.4
20260906004451 58 350 0.0 2.0 0.00 0.05 0.00 100 1022.4
20260906003937 59 275 0.0 2.0 0.00 0.05 0.00 100 1022.3
20260906003434 59 219 0.0 2.0 0.00 0.05 0.00 100 1022.2
20260906002931 58 219 0.0 2.0 0.00 0.05 0.00 100 1022.2
20260906002433 59 257 0.0 2.0 0.00 0.05 0.00 100 1022.2
20260906001930 59 257 0.0 2.0 0.00 0.05 0.00 100 1022.2
20260906001430 59 257 1.0 2.0 0.00 0.05 0.00 100 1022.2
20260906000912 59 257 0.0 2.0 0.00 0.05 0.00 100 1022.2
20260906000418 59 294 0.0 2.0 0.00 0.05 0.00 100 1022.3
20260905235910 59 294 0.0 2.0 0.00 0.05 0.00 100 1022.2
20260905235406 59 316 0.0 2.0 0.00 0.05 0.00 100 1022.3
20260905234902 60 355 0.0 2.0 0.00 0.05 0.00 100 1022.2
20260905234641 60 355 1.0 2.0 0.00 0.05 0.00 100 1022.1
20260905233903 60 342 1.0 2.0 0.00 0.05 0.00 100 1022.2
20260905233403 60 287 0.0 2.0 0.00 0.05 0.00 100 1022.0
20260905232902 60 232 0.0 2.0 0.00 0.05 0.00 100 1022.0
20260905232400 60 232 0.0 2.0 0.00 0.05 0.00 100 1022.1
20260905231900 60 159 1.0 2.0 0.00 0.05 0.00 100 1022.0
20260905231356 60 81 0.0 2.0 0.00 0.05 0.00 100 1022.0
20260905230846 60 321 0.0 2.0 0.00 0.05 0.00 100 1021.9
20260905230340 60 278 1.0 2.0 0.00 0.05 0.00 100 1021.9
20260905225834 60 296 0.0 2.0 0.00 0.05 0.00 100 1022.0
20260905225331 60 289 0.0 2.0 0.00 0.05 0.00 100 1021.8
20260905224830 60 305 0.0 2.0 0.00 0.05 0.00 100 1021.9
20260905224329 60 305 0.0 2.0 0.00 0.05 0.00 100 1021.9
20260905223832 60 234 0.0 2.0 0.00 0.05 0.00 100 1021.9
20260905223331 60 115 0.0 2.0 0.00 0.05 0.00 100 1021.9
20260905222824 60 115 0.0 2.0 0.00 0.05 0.00 100 1021.9
20260905222322 60 115 0.0 2.0 0.00 0.05 0.00 100 1021.8
20260905221845 61 344 0.0 2.0 0.00 0.05 0.00 100 1021.9
20260905221834 61 344 0.0 2.0 0.00 0.05 0.00 100 1021.9
20260905220804 61 344 0.0 2.0 0.00 0.05 0.00 100 1021.9
20260905220318 61 355 1.0 3.0 0.00 0.05 0.05 100 1021.9
20260905220312 61 344 1.0 3.0 0.00 0.05 0.00 100 1021.8
20260905215230 61 321 0.0 2.0 0.00 0.05 0.05 100 1021.9
20260905214730 62 333 1.0 2.0 0.00 0.05 0.05 100 1021.9
20260905214234 62 355 1.0 2.0 0.00 0.05 0.05 100 1021.7
20260905213735 62 96 1.0 3.0 0.00 0.05 0.05 100 1021.7
20260905213231 62 355 1.0 3.0 0.00 0.05 0.05 100 1021.7
20260905212722 62 32 0.0 2.0 0.00 0.05 0.05 100 1021.6
20260905212231 62 31 0.0 2.0 0.00 0.05 0.05 100 1021.6
20260905211715 62 191 0.0 2.0 0.00 0.05 0.05 100 1021.6
20260905211210 62 154 0.0 2.0 0.00 0.05 0.05 100 1021.5
20260905210705 62 215 0.0 2.0 0.00 0.05 0.05 100 1021.4
20260905210204 62 215 0.0 2.0 0.00 0.05 0.05 100 1021.4
20260905205704 62 187 0.0 2.0 0.00 0.05 0.05 100 1021.4
20260905205147 62 187 0.0 2.0 0.00 0.05 0.05 100 1021.4
20260905204639 62 139 1.0 2.0 0.00 0.05 0.05 100 1021.3
20260905204131 62 195 0.0 2.0 0.00 0.05 0.05 100 1021.3
20260905203908 62 188 0.0 2.0 0.00 0.05 0.05 100 1021.3
20260905203125 62 289 0.0 2.0 0.00 0.05 0.05 100 1021.3
20260905202617 62 289 0.0 2.0 0.00 0.05 0.05 100 1021.2
20260905202115 63 298 1.0 1.0 0.00 0.05 0.05 100 1021.1
20260905201616 63 298 1.0 1.0 0.00 0.05 0.05 100 1021.1
20260905201109 63 298 0.0 2.0 0.00 0.05 0.05 100 1021.3
20260905200618 63 300 0.0 2.0 0.00 0.05 0.05 100 1021.1
20260905200113 63 345 0.0 2.0 0.00 0.05 0.05 100 1021.0
20260905195608 63 345 0.0 2.0 0.00 0.05 0.05 100 1021.0
20260905195107 63 338 0.0 2.0 0.00 0.05 0.05 100 1021.0
20260905194600 63 269 0.0 1.0 0.00 0.05 0.05 100 1020.9
20260905194336 64 269 0.0 1.0 0.00 0.05 0.05 100 1020.9
20260905193547 64 269 0.0 1.0 0.00 0.05 0.05 100 1020.8
20260905193037 64 269 0.0 1.0 0.00 0.05 0.05 100 1020.7
20260905192540 64 269 0.0 1.0 0.00 0.05 0.05 100 1020.6
20260905192031 64 269 0.0 1.0 0.00 0.05 0.05 100 1020.7
20260905191531 65 269 0.0 2.0 0.00 0.05 0.05 100 1020.7
20260905191024 65 270 0.0 2.0 0.00 0.05 0.05 100 1020.6
20260905190522 65 314 0.0 2.0 0.00 0.05 0.05 100 1020.6
20260905190014 65 314 0.0 2.0 0.00 0.05 0.05 100 1020.5
20260905185508 65 355 0.0 2.0 0.00 0.05 0.05 100 1020.3
20260905185004 66 328 0.0 2.0 0.00 0.05 0.05 100 1020.5
20260905184455 66 328 1.0 3.0 0.00 0.05 0.05 100 1020.4
20260905183955 66 263 1.0 3.0 0.00 0.05 0.05 100 1020.4
20260905183448 66 261 0.0 2.0 0.00 0.05 0.05 100 1020.4
20260905182937 66 76 0.0 2.0 0.00 0.05 0.05 100 1020.2
20260905182431 66 76 1.0 4.0 0.00 0.05 0.05 100 1020.0
20260905181928 66 102 0.0 4.0 0.00 0.05 0.05 99 1019.8
20260905181427 67 267 0.0 2.0 0.00 0.05 0.05 99 1020.0
20260905180916 67 267 1.0 2.0 0.00 0.05 0.05 98 1019.8
20260905180417 67 270 1.0 2.0 0.00 0.05 0.05 98 1019.7
20260905175904 67 230 1.0 2.0 0.00 0.05 0.05 98 1019.7
20260905175406 67 232 0.0 2.0 0.00 0.05 0.05 99 1019.7
20260905174902 67 100 0.0 2.0 0.00 0.05 0.05 98 1019.6
20260905174627 68 5 0.0 2.0 0.00 0.05 0.05 97 1019.7
20260905173842 68 5 1.0 4.0 0.00 0.05 0.05 96 1019.5
20260905173334 68 235 1.0 4.0 0.00 0.05 0.05 96 1019.4
20260905173114 68 226 1.0 2.0 0.00 0.05 0.05 95 1019.2
20260905172334 69 251 0.0 2.0 0.00 0.05 0.05 94 1019.3
20260905171831 69 251 1.0 2.0 0.00 0.05 0.05 93 1019.3
20260905171329 69 249 1.0 2.0 0.00 0.05 0.05 93 1019.3
20260905170855 70 200 1.0 3.0 0.00 0.05 0.05 91 1019.3
20260905170847 70 217 1.0 2.0 0.00 0.05 0.05 92 1019.3
20260905165829 70 210 1.0 3.0 0.00 0.05 0.05 90 1019.2
20260905165329 71 235 1.0 2.0 0.00 0.05 0.05 89 1019.3
20260905164831 71 207 1.0 2.0 0.00 0.05 0.05 88 1019.2
20260905164609 71 227 1.0 3.0 0.00 0.05 0.05 88 1019.2
20260905163829 71 227 1.0 3.0 0.00 0.05 0.05 86 1019.2
20260905163332 72 256 0.0 3.0 0.00 0.05 0.05 86 1019.2
20260905162826 72 199 0.0 2.0 0.00 0.05 0.05 85 1019.0
20260905162555 72 200 0.0 2.0 0.00 0.05 0.05 86 1019.0
20260905161817 72 185 0.0 2.0 0.00 0.05 0.05 86 1018.9
20260905161304 72 191 1.0 4.0 0.00 0.05 0.05 85 1019.0
20260905160804 72 208 1.0 4.0 0.00 0.05 0.05 84 1018.9
20260905160541 72 203 0.0 2.0 0.00 0.05 0.05 83 1018.9
20260905155802 73 205 1.0 4.0 0.00 0.05 0.05 82 1019.1
20260905155306 73 184 2.0 4.0 0.00 0.05 0.05 82 1019.0
20260905154801 73 135 1.0 5.0 0.00 0.05 0.05 83 1018.9
20260905154545 74 192 1.0 5.0 0.00 0.05 0.05 81 1018.9
20260905153801 74 245 0.0 2.0 0.00 0.05 0.05 80 1018.9
20260905153301 74 222 1.0 3.0 0.00 0.05 0.05 81 1018.9
20260905152802 74 239 2.0 4.0 0.00 0.05 0.05 81 1018.9
20260905152306 74 196 1.0 4.0 0.00 0.05 0.05 81 1019.0
20260905151802 74 200 1.0 4.0 0.00 0.05 0.05 80 1019.1
20260905151303 74 230 1.0 4.0 0.00 0.05 0.05 79 1019.0
20260905151043 74 212 2.0 5.0 0.00 0.05 0.05 82 1019.1
20260905150550 73 159 1.0 5.0 0.00 0.05 0.05 82 1018.9
20260905145802 73 141 1.0 4.0 0.00 0.05 0.05 81 1018.9
20260905145302 74 227 1.0 3.0 0.00 0.05 0.05 81 1019.0
20260905144803 73 85 1.0 4.0 0.00 0.05 0.05 83 1019.0
20260905144549 73 170 1.0 4.0 0.00 0.05 0.05 83 1019.0
20260905143753 73 98 1.0 4.0 0.00 0.05 0.05 80 1019.0
20260905143253 74 152 1.0 4.0 0.00 0.05 0.05 82 1019.0
20260905142750 73 210 1.0 4.0 0.00 0.05 0.05 82 1019.2
20260905142250 73 138 1.0 4.0 0.00 0.05 0.05 81 1019.2
20260905141750 73 195 1.0 4.0 0.00 0.05 0.05 81 1019.4
20260905141252 71 236 1.0 3.0 0.00 0.05 0.05 84 1019.1
20260905141031 72 149 2.0 4.0 0.00 0.05 0.05 84 1019.2
20260905140250 71 182 2.0 4.0 0.00 0.05 0.05 86 1019.2
20260905135749 70 240 1.0 3.0 0.00 0.05 0.05 88 1019.2
20260905135247 70 254 1.0 6.0 0.00 0.05 0.05 87 1019.2
20260905134744 71 162 2.0 7.0 0.00 0.05 0.05 88 1019.2
20260905134244 70 213 2.0 7.0 0.00 0.05 0.05 89 1019.1
20260905133745 70 140 2.0 7.0 0.00 0.05 0.05 90 1019.1
20260905133244 70 150 2.0 7.0 0.00 0.05 0.05 88 1019.1
20260905132743 70 138 3.0 7.0 0.00 0.05 0.05 88 1019.1
20260905132243 70 206 3.0 7.0 0.00 0.05 0.05 87 1019.2
20260905131743 71 212 2.0 7.0 0.00 0.05 0.05 85 1019.2
20260905131242 70 194 2.0 7.0 0.00 0.05 0.05 88 1019.3
20260905130737 70 164 2.0 6.0 0.00 0.05 0.05 89 1019.1
20260905130240 69 150 2.0 8.0 0.00 0.05 0.05 88 1019.0
20260905130020 70 188 3.0 9.0 0.01 0.05 0.05 90 1019.1
20260905125236 70 162 3.0 9.0 0.01 0.05 0.05 88 1019.3
20260905125022 70 185 2.0 5.0 0.01 0.05 0.05 92 1019.3
20260905124230 70 203 2.0 5.0 0.01 0.05 0.05 89 1019.3
20260905123730 69 207 2.0 5.0 0.01 0.05 0.05 91 1019.2
20260905123230 69 223 2.0 5.0 0.01 0.05 0.05 90 1019.1
20260905123020 68 228 1.0 3.0 0.01 0.05 0.05 92 1019.1
20260905122232 68 219 1.0 2.0 0.02 0.05 0.05 94 1019.0
20260905121729 68 246 1.0 3.0 0.02 0.05 0.05 93 1019.3
20260905121222 68 207 2.0 3.0 0.02 0.05 0.05 96 1019.4
20260905120713 67 262 2.0 3.0 0.02 0.05 0.05 95 1019.4
20260905120208 67 284 2.0 3.0 0.05 0.05 0.05 95 1019.4
20260905115705 67 255 2.0 3.0 0.04 0.04 0.04 95 1019.4
20260905115155 68 253 2.0 3.0 0.04 0.04 0.04 96 1019.5
20260905114649 67 235 2.0 4.0 0.04 0.04 0.04 96 1019.5
20260905114145 68 209 2.0 4.0 0.04 0.04 0.04 95 1019.3
20260905113630 68 221 2.0 3.0 0.04 0.04 0.04 94 1019.3
20260905113128 68 259 2.0 4.0 0.04 0.04 0.04 94 1019.4
20260905112626 68 244 2.0 5.0 0.04 0.04 0.04 92 1019.3
20260905112121 68 229 2.0 5.0 0.03 0.03 0.03 92 1019.2
20260905111613 69 234 2.0 4.0 0.02 0.02 0.02 89 1019.4
20260905111104 69 234 1.0 4.0 0.02 0.02 0.02 86 1019.3
20260905110558 71 121 1.0 4.0 0.02 0.02 0.00 77 1019.2
20260905110100 73 197 2.0 6.0 0.00 0.00 0.00 71 1019.4
20260905105551 73 196 2.0 7.0 0.00 0.00 0.00 70 1019.2
20260905105036 73 197 2.0 7.0 0.00 0.00 0.00 70 1019.2
20260905104811 74 160 2.0 7.0 0.00 0.00 0.00 69 1019.1
20260905104027 74 221 1.0 7.0 0.00 0.00 0.00 69 1019.1
20260905103521 74 143 1.0 6.0 0.00 0.00 0.00 70 1019.1
20260905103016 74 167 1.0 6.0 0.00 0.00 0.00 70 1019.1
20260905102756 74 110 1.0 4.0 0.00 0.00 0.00 69 1019.1
20260905102014 74 160 1.0 4.0 0.00 0.00 0.00 69 1019.1
20260905101514 74 191 2.0 5.0 0.00 0.00 0.00 69 1019.2
20260905101253 74 219 1.0 5.0 0.00 0.00 0.00 69 1019.1
20260905100511 73 131 2.0 6.0 0.00 0.00 0.00 70 1019.1
20260905100013 74 163 2.0 6.0 0.00 0.00 0.00 69 1019.1
20260905095512 74 204 4.0 7.0 0.00 0.00 0.00 69 1019.2
20260905095009 74 142 5.0 8.0 0.00 0.00 0.00 69 1019.2
20260905094509 75 140 5.0 11.0 0.00 0.00 0.00 69 1019.1
20260905094009 74 146 4.0 11.0 0.00 0.00 0.00 69 1019.1
20260905093747 75 139 3.0 8.0 0.00 0.00 0.00 69 1019.0
20260905093009 75 133 3.0 9.0 0.00 0.00 0.00 71 1019.1
20260905092507 74 148 4.0 10.0 0.00 0.00 0.00 71 1019.0
20260905092006 74 115 3.0 10.0 0.00 0.00 0.00 73 1019.0
20260905091504 73 144 4.0 11.0 0.00 0.00 0.00 71 1018.9
20260905090956 74 120 3.0 11.0 0.00 0.00 0.00 71 1018.9
20260905090723 74 145 2.0 7.0 0.00 0.00 0.00 75 1018.7
20260905090213 73 213 2.0 5.0 0.00 0.00 0.00 74 1018.6
20260905085430 73 155 2.0 7.0 0.00 0.00 0.00 76 1018.5
20260905084930 73 90 3.0 7.0 0.00 0.00 0.00 78 1018.5
20260905084432 72 143 4.0 9.0 0.00 0.00 0.00 79 1018.4
20260905083929 72 105 3.0 9.0 0.00 0.00 0.00 79 1018.3
20260905083428 72 101 1.0 7.0 0.00 0.00 0.00 82 1018.1
20260905082929 71 123 1.0 4.0 0.00 0.00 0.00 87 1018.0
20260905082433 71 150 0.0 2.0 0.00 0.00 0.00 88 1017.9
20260905081929 70 184 0.0 2.0 0.00 0.00 0.00 89 1017.8
20260905081428 70 143 1.0 2.0 0.00 0.00 0.00 89 1017.7
20260905080930 70 192 0.0 2.0 0.00 0.00 0.00 89 1017.6
20260905080431 70 230 0.0 2.0 0.00 0.00 0.00 90 1017.5
20260905080208 70 243 0.0 2.0 0.00 0.00 0.00 91 1017.2
20260905075434 70 174 1.0 5.0 0.00 0.00 0.00 92 1017.0
20260905074913 70 175 2.0 5.0 0.00 0.00 0.00 91 1016.8
20260905074412 70 121 1.0 2.0 0.00 0.00 0.00 91 1016.6
20260905073906 70 245 1.0 7.0 0.00 0.00 0.00 90 1016.4
20260905073409 70 155 1.0 7.0 0.00 0.00 0.00 89 1016.6
20260905072912 70 197 0.0 1.0 0.00 0.00 0.00 88 1016.2
20260905072404 70 223 1.0 2.0 0.00 0.00 0.00 88 1015.9
20260905071905 70 236 0.0 2.0 0.00 0.00 0.00 87 1016.0
20260905071339 70 103 0.0 2.0 0.00 0.00 0.00 89 1015.9
20260905070836 70 103 0.0 2.0 0.00 0.00 0.00 88 1015.7
20260905070345 70 111 0.0 2.0 0.00 0.00 0.00 88 1015.6
20260905065830 70 78 0.0 1.0 0.00 0.00 0.00 89 1015.5
20260905065332 70 269 0.0 1.0 0.00 0.00 0.00 88 1015.4
20260905064830 69 250 0.0 1.0 0.00 0.00 0.00 89 1015.3
20260905064330 69 250 0.0 2.0 0.00 0.00 0.00 90 1015.2
20260905063830 69 275 0.0 2.0 0.00 0.00 0.00 90 1015.1
20260905063325 68 15 0.0 2.0 0.00 0.00 0.00 92 1015.1
20260905062827 68 19 0.0 2.0 0.00 0.00 0.00 91 1015.3
20260905062343 68 211 0.0 2.0 0.00 0.00 0.00 92 1015.1
20260905062337 68 19 0.0 2.0 0.00 0.00 0.00 93 1015.3
20260905061320 68 211 0.0 2.0 0.00 0.00 0.00 92 1014.8
20260905060816 68 211 0.0 2.0 0.00 0.00 0.00 92 1014.8
20260905060314 67 13 0.0 2.0 0.00 0.00 0.00 92 1014.8
20260905055815 67 13 0.0 2.0 0.00 0.00 0.00 93 1014.7
20260905055310 67 334 0.0 2.0 0.00 0.00 0.00 93 1014.7
20260905054803 67 57 0.0 2.0 0.00 0.00 0.00 93 1014.7
20260905054307 67 57 0.0 2.0 0.00 0.00 0.00 94 1014.6
20260905053804 66 57 0.0 2.0 0.00 0.00 0.00 95 1014.5
20260905053537 66 57 0.0 2.0 0.00 0.00 0.00 95 1014.4
20260905052816 65 57 0.0 3.0 0.00 0.00 0.00 96 1014.2
20260905052256 65 61 0.0 3.0 0.00 0.00 0.00 98 1014.3
20260905051733 65 234 0.0 1.0 0.00 0.00 0.00 99 1013.8
20260905051231 64 233 1.0 1.0 0.00 0.00 0.00 99 1013.8
20260905050730 64 234 1.0 2.0 0.00 0.00 0.00 99 1013.7
20260905050456 63 275 0.0 2.0 0.00 0.00 0.00 100 1013.6
20260905045713 63 275 0.0 2.0 0.00 0.00 0.00 100 1013.6
20260905045216 63 296 0.0 2.0 0.00 0.00 0.00 100 1013.5
20260905044705 63 296 0.0 0.0 0.00 0.00 0.00 100 1013.4
20260905044205 63 296 0.0 2.0 0.00 0.00 0.00 100 1013.4
20260905043702 63 295 0.0 2.0 0.00 0.00 0.00 100 1013.4
20260905043203 63 293 1.0 2.0 0.00 0.00 0.00 100 1013.2
20260905042702 63 349 1.0 2.0 0.00 0.00 0.00 100 1013.2
20260905042147 63 355 0.0 2.0 0.00 0.00 0.00 100 1013.2
20260905041646 63 309 0.0 2.0 0.00 0.00 0.00 100 1013.2
20260905041147 63 12 0.0 2.0 0.00 0.00 0.00 100 1013.2
20260905040920 63 340 0.0 2.0 0.00 0.00 0.00 100 1013.1
20260905040139 63 340 0.0 2.0 0.00 0.00 0.00 100 1013.1
20260905035633 63 340 0.0 2.0 0.00 0.00 0.00 100 1013.1
20260905035130 63 340 0.0 2.0 0.00 0.00 0.00 100 1013.1
20260905034909 63 47 0.0 2.0 0.00 0.00 0.00 100 1013.1
20260905034130 63 47 1.0 2.0 0.00 0.00 0.00 100 1013.1
20260905033908 63 48 1.0 2.0 0.00 0.00 0.00 100 1013.0
20260905033203 63 341 0.0 2.0 0.00 0.00 0.00 100 1012.8
20260905033153 63 33 0.0 2.0 0.00 0.00 0.00 100 1013.0
20260905032125 63 341 0.0 2.0 0.00 0.00 0.00 100 1012.8
20260905031611 63 341 0.0 1.0 0.00 0.00 0.00 99 1012.7
20260905031104 63 341 0.0 2.0 0.00 0.00 0.00 100 1012.7
20260905030846 63 325 0.0 2.0 0.00 0.00 0.00 100 1012.6
20260905030403 64 307 0.0 2.0 0.00 0.00 0.00 100 1012.5
20260905025602 63 306 0.0 1.0 0.00 0.00 0.00 100 1012.5
20260905025051 63 329 0.0 1.0 0.00 0.00 0.00 100 1012.6
20260905024838 63 311 1.0 2.0 0.00 0.00 0.00 100 1012.5
20260905024319 64 28 0.0 2.0 0.00 0.00 0.00 99 1012.5
20260905023819 64 30 0.0 2.0 0.00 0.00 0.00 99 1012.5
20260905023035 64 76 1.0 2.0 0.00 0.00 0.00 99 1012.5
20260905022532 64 98 1.0 2.0 0.00 0.00 0.00 98 1012.5
20260905022035 64 76 1.0 2.0 0.00 0.00 0.00 98 1012.5
20260905021526 64 55 0.0 2.0 0.00 0.00 0.00 99 1012.5
20260905021301 64 304 1.0 3.0 0.00 0.00 0.00 98 1012.5
20260905020514 64 332 1.0 3.0 0.00 0.00 0.00 98 1012.6
20260905020016 64 236 1.0 3.0 0.00 0.00 0.00 99 1012.5
20260905015514 64 278 0.0 2.0 0.00 0.00 0.00 99 1012.5
20260905015249 64 312 0.0 2.0 0.00 0.00 0.00 98 1012.5